Weather Roundup
Issued by NWS Springfield, MO

Home | Current Version | Previous Version | Text Only | Print | Product List | Glossary On
Versions: 1 2 3 4 5 6 7 8 9 10 11 12 13 14 15 16 17 18 19 20 21 22 23 24 25 26 27 28 29 30 31 32 33 34 35 36 37 38 39 40 41 42 43 44 45 46 47 48 49 50
000
NZUS99 KSGF 071657
HRRSGF

HOURLY WEATHER
NATIONAL WEATHER SERVICE SPRINGFIELD MO
1100 AM CST SUN FEB 07 2016

......SGF CWA......

CITY           SKY/WX    TMP DP  RH WIND       PRES   REMARKS
SPRINGFIELD    CLOUDY    46  28  49 W13       30.06S
JOPLIN         CLOUDY    44  29  55 SW10      30.11F
ROLLA          MOSUNNY   48  28  46 W17       29.97F
BRANSON        CLOUDY    48  28  46 W17G32    30.09F

......SURROUNDING SGF CWA......

CITY           SKY/WX    TMP DP  RH WIND       PRES   REMARKS
CHANUTE        CLOUDY    45  29  53 NW9       30.12R
PARSONS        CLOUDY    44  29  55 W9        30.14R
COFFEYVILLE    CLOUDY    44  28  53 W7        30.15R
EMPORIA        SUNNY     50  26  39 N18       30.13R
HARRISON AR    MOSUNNY   52  26  36 W12G17    30.09F

......KANSAS AND MISSOURI......

CITY           SKY/WX    TMP DP  RH WIND       PRES   REMARKS
KANSAS CTY INT PTSUNNY   48  28  46 NW17G23   30.05R
SEDALIA        CLOUDY    45  29  53 W15G21    30.02S
ST JOSEPH      MOSUNNY   46  26  45 NW17      30.07R
ST LOUIS       PTSUNNY   53  28  38 W20G30    29.96F
WICHITA        CLOUDY    48  26  42 N21       30.19R
TOPEKA         PTSUNNY   48  25  40 NW17      30.11R
OLATHE         LGT RAIN  48  26  42 NW16G24   30.06R

......TENNESSEE......

CITY           SKY/WX    TMP DP  RH WIND       PRES   REMARKS
MEMPHIS        NOT AVBL
NASHVILLE      MOSUNNY   52  20  28 SW6       30.16F

......ARKANSAS.......

CITY           SKY/WX    TMP DP  RH WIND       PRES   REMARKS
FAYETTEVILLE   MOSUNNY   48  31  51 SW13G23   30.13F
FT SMITH       SUNNY     50  31  48 SW7       30.17F
LITTLE ROCK    MOSUNNY   54  28  36 W17       30.20F

......OKLAHOMA.......

CITY           SKY/WX    TMP DP  RH WIND       PRES   REMARKS
TULSA          CLOUDY    50  31  48 W10       30.14R
MCALESTER      SUNNY     52  33  48 SW15G25   30.17F
OKLAHOMA CITY  MOSUNNY   48  26  42 NW10      30.17R

......IOWA............

CITY           SKY/WX    TMP DP  RH WIND       PRES   REMARKS
DES MOINES     NOT AVBL
QUAD CITIES    CLOUDY    41  29  62 MISG      29.81S

......ILLINOIS........

CITY           SKY/WX    TMP DP  RH WIND       PRES   REMARKS
QUINCY         NOT AVBL
CHICAGO        PTSUNNY   41  29  62 W17G26    29.77F



USA.gov is the U.S. government's official web portal to all federal, state and local government web resources and services.